TimeEST,TemperatureF,Dew PointF,Humidity,Sea Level PressureIn,VisibilityMPH,Wind Direction,Wind SpeedMPH,Gust SpeedMPH,PrecipitationIn,Events,Conditions,WindDirDegrees,DateUTC
12:01 AM,28.9,28.9,100,30.27,2.0,Calm,Calm,-,N/A,,Clear,0,2013-01-04 05:01:00
12:18 AM,30.9,28.0,89,30.27,2.0,Calm,Calm,-,N/A,,Partly Cloudy,0,2013-01-04 05:18:00
12:32 AM,28.9,28.0,96,30.27,3.0,Calm,Calm,-,N/A,,Partly Cloudy,0,2013-01-04 05:32:00
12:35 AM,28.9,28.0,96,30.27,1.8,Calm,Calm,-,N/A,,Partly Cloudy,0,2013-01-04 05:35:00
12:41 AM,28.0,27.0,96,30.28,0.8,Calm,Calm,-,N/A,,Mist,0,2013-01-04 05:41:00
12:45 AM,28.0,27.0,96,30.28,1.0,Calm,Calm,-,N/A,,Clear,0,2013-01-04 05:45:00
12:52 AM,28.4,28.4,100,30.28,3.0,Calm,Calm,-,N/A,,Clear,0,2013-01-04 05:52:00
12:54 AM,28.9,28.0,96,30.31,3.0,Calm,Calm,-,N/A,,Clear,0,2013-01-04 05:54:00
1:54 AM,30.9,28.0,89,30.32,6.0,Calm,Calm,-,N/A,,Clear,0,2013-01-04 06:54:00
2:54 AM,27.0,27.0,100,30.32,5.0,Calm,Calm,-,N/A,,Clear,0,2013-01-04 07:54:00
3:54 AM,26.1,25.0,96,30.31,4.0,Calm,Calm,-,N/A,,Clear,0,2013-01-04 08:54:00
4:54 AM,26.1,25.0,96,30.31,5.0,Calm,Calm,-,N/A,,Clear,0,2013-01-04 09:54:00
5:54 AM,25.0,24.1,96,30.31,6.0,SW,3.5,-,N/A,,Clear,220,2013-01-04 10:54:00
6:54 AM,25.0,24.1,96,30.34,6.0,Calm,Calm,-,N/A,,Clear,0,2013-01-04 11:54:00
7:54 AM,27.0,26.1,96,30.34,4.0,Calm,Calm,-,N/A,,Clear,0,2013-01-04 12:54:00
8:54 AM,32.0,30.9,96,30.36,5.0,Calm,Calm,-,N/A,,Clear,0,2013-01-04 13:54:00
9:54 AM,39.0,28.9,67,30.38,10.0,Calm,Calm,-,N/A,,Clear,0,2013-01-04 14:54:00
10:54 AM,44.1,26.1,49,30.36,10.0,Calm,Calm,-,N/A,,Clear,0,2013-01-04 15:54:00
11:54 AM,46.0,27.0,47,30.34,10.0,WSW,6.9,-,N/A,,Clear,250,2013-01-04 16:54:00
12:54 PM,46.9,26.1,44,30.30,10.0,West,6.9,-,N/A,,Clear,260,2013-01-04 17:54:00
1:54 PM,48.9,26.1,41,30.27,10.0,West,8.1,-,N/A,,Clear,260,2013-01-04 18:54:00
2:54 PM,50.0,26.1,39,30.25,10.0,WNW,8.1,-,N/A,,Clear,290,2013-01-04 19:54:00
3:54 PM,50.0,26.1,39,30.26,10.0,West,9.2,-,N/A,,Clear,280,2013-01-04 20:54:00
4:54 PM,48.9,25.0,39,30.26,10.0,West,4.6,-,N/A,,Clear,260,2013-01-04 21:54:00
6:54 PM,35.1,27.0,72,30.32,10.0,Calm,Calm,-,N/A,,Clear,0,2013-01-04 23:54:00
7:54 PM,37.9,24.1,57,30.34,10.0,North,6.9,-,N/A,,Clear,350,2013-01-05 00:54:00
8:54 PM,35.1,19.9,54,30.34,10.0,North,8.1,-,N/A,,Clear,350,2013-01-05 01:54:00
9:54 PM,34.0,18.0,52,30.35,10.0,North,4.6,-,N/A,,Clear,360,2013-01-05 02:54:00
10:54 PM,30.9,19.0,61,30.35,10.0,North,10.4,-,N/A,,Clear,10,2013-01-05 03:54:00
11:54 PM,35.1,19.9,54,30.35,10.0,North,5.8,-,N/A,,Clear,360,2013-01-05 04:54:00